Regional Weather Roundup
Issued by NWS Grand Forks, ND

Home | Current Version | Previous Version | Graphics & Text | Print | Product List | Glossary On
Versions: 1 2 3 4 5 6 7 8 9 10 11 12 13 14 15 16 17 18 19 20 21 22 23 24 25 26 27 28 29 30 31 32 33 34 35 36 37 38 39 40 41 42 43 44 45 46 47 48 49 50
050
ASUS43 KFGF 300531
RWRFGF
PRAIRIE TO PINES  WEATHER ROUNDUP
NATIONAL WEATHER SERVICE EASTERN NORTH DAKOTA/GRAND FORKS ND
1200 AM CDT THU MAR 30 2017

 **SATELLITE DATA USED TO AUGMENT SKY COVER AT AUTOMATED STATIONS**
 *****  WEATHER ACROSS EASTERN NORTH DAKOTA  *****

CITY           SKY/WX    TMP DP  RH WIND       PRES   REMARKS
GRAND FORKS    FAIR      44  38  79 S16       29.99R
GRAND FRKS AFB MOCLDY    45  36  70 S18G25    29.97S
DEVILS LAKE    CLOUDY    47  36  65 S22G31    29.90S
FARGO          FAIR      44  38  79 S18       30.03F
WAHPETON ARPT  FAIR      36  32  87 S8        30.06F
$$

 ***** WEATHER ACROSS CENTRAL AND WESTERN NORTH DAKOTA  *****

CITY           SKY/WX    TMP DP  RH WIND       PRES   REMARKS
BISMARCK       CLOUDY    51  35  54 S22G30    29.93R
MINOT          FAIR      47  39  74 S10       29.82F
JAMESTOWN      CLOUDY    42  36  79 S18       29.97S
MINOT AFB      FAIR      39  39  99 S5        29.81F
GARRISON         N/A     42  36  79 SW7       29.85S
WILLISTON      FAIR      43  32  65 SW3       29.83S
DICKINSON      FAIR      38  30  73 S8        29.85S
HETTINGER      FAIR      43  37  79 S9        29.90S
$$

 *****  OTHER AIRPORT OBSERVATIONS IN OUR AREA  *****

CITY           SKY/WX    TMP DP  RH WIND       PRES   REMARKS
WALHALLA       NOT AVBL
GRAFTON AIRPOR CLOUDY    45  39  81 S16G22    29.97S
VALLEY CITY AR FAIR      39  37  93 S17       30.00S
CANDO          NOT AVBL
CAVALIER APRT  MOCLDY    46  37  71 S17       29.92S
GWINNER        CLEAR     37  36  93 MISG      30.04F
SHEYENNE NWR     N/A     39  35  87 S10       29.95S
ROLLA          MOCLDY    39  39 100 S5        29.87F
 ***** THE ABOVE OBSERVATIONS ARE NON NWS ARE NOT QUALITY
       CONTROLLED AND MAY MIS-REPORT RAIN FOR SNOW...
$$

  *****  WEATHER ACROSS NORTHERN MINNESOTA  *****

CITY           SKY/WX    TMP DP  RH WIND       PRES   REMARKS
FLAG ISLAND    FAIR      37  32  81 S20       29.98F
WARROAD        FAIR      45  36  70 S12       29.99F
ROSEAU         FAIR      45  36  70 S9        29.99S
HALLOCK        FAIR      45  39  81 S17       29.95S
THF RVR FALLS  FAIR      43  35  73 S15       30.01F
BAUDETTE       FAIR      41  32  70 S14       30.03F
WASKISH        FAIR      39  32  75 S7        30.05F
CROOKSTON      FAIR      43  37  81 S20G29    29.99F
STEPHEN NDAWN    N/A     45  37  76 S15         N/A
GREENBUSH NDAW   N/A     45  36  70 S16         N/A
$$
  *****  WEATHER ACROSS CENTRAL AND WEST MINNESOTA  *****

CITY           SKY/WX    TMP DP  RH WIND       PRES   REMARKS
FOSSTON        FAIR      36  30  80 S8        30.04F
BEMIDJI        FAIR      35  31  85 SE7       30.05F
PARK RAPIDS    FAIR      40  29  64 SE7       30.06F
ELBOW LAKE     FAIR      37  37  99 E3        30.07F
WADENA         FAIR      34  32  93 CALM      30.06F
DETROIT LAKES  FAIR      37  34  87 S7        30.06F
MOORHEAD       FAIR      41  36  81 S12       30.05F
FERGUS FALLS   FAIR      37  37 100 S5        30.10F
MORRIS MN      CLOUDY    39  37  93 S3        30.05F
STAPLES        FAIR      34  30  86 CALM      30.08F
$$
  *****  WEATHER ELSEWHERE ACROSS MINNESOTA  *****

CITY           SKY/WX    TMP DP  RH WIND       PRES   REMARKS
DULUTH         FAIR      30  28  92 E12       30.13F WCI  20
INTRNTL FALLS  FAIR      36  27  69 SE7       30.08F
ELY            FAIR      28  23  80 CALM      30.13F
CLOQUET        CLOUDY    30  28  93 E6        30.13S WCI  24
WHEATON        FAIR      36  34  93 SE6       30.08F
BRAINERD       FAIR      34  30  85 CALM      30.10F
HIBBING        FAIR      28  25  88 CALM      30.12F
ALEXANDRIA     FAIR      37  35  92 SE5       30.08F
SAINT CLOUD    CLOUDY    39  36  89 E3        30.09F
MINNEAPOLIS    CLOUDY    42  36  79 E10       30.08F
$$

  *****  WEATHER ACROSS SOUTH DAKOTA  *****

CITY           SKY/WX    TMP DP  RH WIND       PRES   REMARKS
SIOUX FALLS    LGT RAIN  39  39 100 NE13      29.97F
BROOKINGS      CLOUDY    37  34  87 E13       29.98F
WATERTOWN      CLOUDY    39  37  92 E7        30.01F
HURON          CLOUDY    42  38  85 E6        30.01F
SISSETON         N/A     42  38  85 S12       30.05F
ABERDEEN       FAIR      38  32  79 SE9       30.03F
MITCHELL       CLOUDY    41  36  82 E8        30.00F
PIERRE         FAIR      38  33  82 SE10      29.98S
MOBRIDGE       MOCLDY    42  32  67 S12       29.95S
RAPID CITY     FAIR      37  35  92 CALM      29.92F
$$

  *****  SOME WEATHER IN NEARBY STATES *****

CITY           SKY/WX    TMP DP  RH WIND       PRES   REMARKS
GLASGOW MT     CLOUDY    47  32  56 E9        29.77F
GREAT FALLS MT FAIR      50  34  54 SW20      29.76F
CHEYENNE WY    FAIR      37  29  72 S7        29.97S
SCOTTSBLUFF NE FAIR      36  33  89 E5        29.94F
OMAHA NE       LGT RAIN  43  38  82 N15G25    29.74F
DES MOINES IA  CLOUDY    44  41  89 E15G26    29.80F
DAVENPORT IA   LGT RAIN  42  39  89 E25G32    29.85F
CHICAGO IL     LGT RAIN  45  38  76 E17G25    30.00F
EAU CLAIRE WI  CLOUDY    40  37  89 E9        30.09F
LA CROSSE WI   CLOUDY    42  35  76 E12G21    30.06F
$$

  *****  SOME NATIONAL WEATHER *****

CITY           SKY/WX    TMP DP  RH WIND       PRES   REMARKS
LA GUARDIA NY  FAIR      44  23  43 N10       30.23S
RALEIGH NC     FAIR      60  52  74 SE8       30.12R
ATLANTA GA     FAIR      71  60  68 SE5       29.98F
NEW ORLEANS LA MOCLDY    73  69  87 SE13      29.90F
OKLAHOMA CITY  CLOUDY    48  40  73 W12       29.79F
ALBUQUERQUE NM MOCLDY    49  36  61 S6        30.07R
SALT LAKE CITY MOCLDY    51  36  56 SE8       30.03F
LOS ANGELES CA FAIR      63  54  72 CALM      30.00F
BOISE ID       LGT RAIN  50  47  89 SE6       29.95F
SEATTLE WA     MOCLDY    46  41  82 S12       29.99R
$$

*** WEATHER ACROSS MANITOBA...SASKATCHEWAN AND ONTARIO ***
                ***ONTARIO***

CITY           SKY/WX    TMP DP  RH WIND       PRES   REMARKS
GERALDTON      PTCLDY    27  18  69 SE5       30.24F WCI  21
THUNDER BAY    CLEAR     27  27 100 NE3       30.23F
SIOUX LOOKOUT  CLOUDY    37  27  65 S9        30.08F
TORONTO        MOCLDY    39  25  56 CALM      30.26R
BIG TROUT LK   CLOUDY    34  23  64 SE9       30.09F
PICKLE LAKE    NOT AVBL
DRYDEN         CLOUDY    39  27  60 S15G21    30.05F
KENORA         CLOUDY    43  30  61 S13G23    30.00F
$$
                *** MANITOBA***

CITY           SKY/WX    TMP DP  RH WIND       PRES   REMARKS
BRANDON        MOCLDY    34  32  93 N2        29.83S
DAUPHIN        FOG       34  34 100 N5        29.79F VSB 1/2
ISLAND LAKE    LGT RAIN  34  32  93 E8        29.91F
PILOT MOUND      N/A     41  37  87 S9          N/A
THE PAS        DRIZZLE   34  30  86 E3        29.84F
THOMPSON       CLOUDY    37  25  60 E3        29.92F
WINNIPEG       LGT RAIN  48  43  81 S20G25    29.92R
LYNN LAKE      CLOUDY    34  25  69 E7        29.89F
CHURCHILL      MOCLDY    14  12  92 SE8       30.10F WCI   3
GILLAM         CLOUDY    32  21  64 E6        30.00F
$$
                ***SASKATCHEWAN***

CITY           SKY/WX    TMP DP  RH WIND       PRES   REMARKS
ESTEVAN        CLOUDY    41  34  75 SW8       29.80S
KINDERSLEY     CLOUDY    43  36  75 SE16      29.70F
LLOYDMINSTER   FOG       32  32 100 E7        29.74F VSB 1/4
PRINCE ALBERT  CLOUDY    36  32  87 CALM      29.81F
REGINA         CLOUDY    41  36  81 SE2       29.77F
YORKTON        PTCLDY    36  36 100 S8        29.77S FOG
N. BATTLEFORD  MOCLDY    32 N/A N/A E13       29.79S VSB 5/8 WCI  22
LA RONGE       FOG       32  32 100 NE5       29.84S VSB 3/4
SASKATOON      FOG       36  34  93 NE10      29.79F VSB 1
SWIFT CURRENT  CLOUDY    46  30  53 S12       29.73F
$$
NOTE: THESE ARE AUTOMATED STATIONS WITH LIMITED QUALITY CONTROL
      "FAIR" INDICATES FEW OR NO CLOUDS BELOW 12,000 FEET WITH NO
      SIGNIFICANT WEATHER AND/OR OBSTRUCTIONS TO VISIBILITY.
      SKY/WX - SKY CONDITION AND SIGNIFICANT WEATHER.
      TMP - AIR TEMPERATURE.    DP   - DEWPOINT TEMPERATURE.
      RH  - RELATIVE HUMIDITY.  PRES - PRESSURE.
      HX  - HEAT INDEX.         WCI  - WIND CHILL INDEX.
$




USA.gov is the U.S. government's official web portal to all federal, state and local government web resources and services.